星链-37134(STARLINK-37134)

导读

STARLINK-37134(NORAD编号68281)是美国太空探索技术公司(SpaceX)星链(Starlink)项目的低轨互联网卫星,于2024年12月8日发射入轨,截至2026年4月已在轨飞行超480天。该卫星运行在近地点约355公里、远地点约357公里的近地轨道,轨道倾角43.001°,运行周期约91.66分钟,属于Starlink V1.0平台,旨在为全球提供高速低延迟卫星互联网服务,覆盖全球范围,兼顾民用、商业和部分行业通信需求。

基本信息
目录编号:
68281
目录名称:
STARLINK-37134
国际标识:
2026-055V
轨道中心:
EARTH
卫星名称:
星链-37134
卫星全名:
星链-37134(STARLINK-37134)
卫星状态:
在轨 (已飞行131 天)
发射日期:
2026-03-19 UTC
国别 :
美国 (US)
星等 :
--
轨道信息
数据来源 国际轨道数据 AOE轨道数据
星历时间 2026-07-27T20:07:56+0800
13小时前
查看轨道信息
2026-07-28T02:00:00+0800
7小时前
查看轨道信息
半长轴 6840.812km 6840.869km
偏心率 0.000095 0.0000065
轨道倾角 53.157° 53.159°
近地点辐角 117.710° 71.846°
升交点赤经 28.680° 27.544°
平近点角 242.400° 199.530°
近地点 462.025km 462.687km
远地点 463.325km 462.777km
周期 93.847分钟 93.848分钟
每日圈数 15.344098 15.343906
详细信息
固有亮度:
5
最大亮度:
2.5
卫星平台:
Starlink V1.0
覆盖范围:
全球
运营商:
太空探索技术公司
运营商所在国:
美国
制造商(研发单位):
太空探索技术公司
制造商所在国:
美国
使用方式:
暂无
卫星简介
Starlink 计划是 SpaceX 推出的全球卫星互联网项目,通过发射低轨道卫星,为全球尤其是偏远地区提供高速、低延迟的互联网服务。自 2019 年起,Starlink 已部署数千颗卫星,旨在缩小全球数字鸿沟,推动互联网普及。该项目还为军事、航空等行业提供通信支持,带来广泛经济效益。
2D轨道图
3D轨道图
轨道高度分析图
轨道倾角分析图
轨道综合分析图
查看轨道综合分析图